"2010-09-20 00:00:00",175981,10.76,128.7,1.088,0.189,23.84,111.0762,27.66,28.58,14.14,0,111.3,13.08,28.51,90.7
"2010-09-20 00:00:30",175982,10.8,128.7,0.731,0.166,23.87,111.0776,27.66,28.58,14.11,0,111.3,13.08,28.51,90.7
"2010-09-20 00:01:00",175983,10.91,127,1.389,0.189,23.82,111.079,27.67,28.57,14.13,0,111.3,13.08,28.52,89.0
"2010-09-20 00:01:30",175984,10.94,126.3,1.68,0.193,23.82,111.081,27.67,28.58,14.18,0,111.3,13.08,28.52,88.3
"2010-09-20 00:02:00",175985,10.88,126.3,1.486,0.247,23.85,111.081,27.67,28.58,14.18,0,111.3,13.08,28.52,88.3
"2010-09-20 00:02:30",175986,11.16,125.2,1.27,0.204,23.82,111.0838,27.68,28.57,14.17,0,111.3,13.08,28.53,87.2
"2010-09-20 00:03:00",175987,11.21,122.5,1.256,0.252,23.79,111.0816,27.67,28.57,14.25,0,111.3,13.08,28.52,84.5
"2010-09-20 00:03:30",175988,11.55,123.2,0.738,0.127,23.77,111.0802,27.67,28.57,14.31,0,111.3,13.08,28.52,85.2
"2010-09-20 00:04:00",175989,11.32,124.6,0.639,0.12,23.85,111.0771,27.66,28.57,14.3,0,111.3,13.08,28.51,86.6
"2010-09-20 00:04:30",175990,11.61,125.3,0.958,0.164,23.83,111.0777,27.66,28.58,14.33,0,111.3,13.08,28.51,87.3
"2010-09-20 00:05:00",175991,11.84,124.4,2.294,0.256,23.8,111.0787,27.67,28.57,14.39,0,111.3,13.08,28.52,86.4
"2010-09-20 00:05:30",175992,11.59,124.4,1.114,0.192,23.8,111.0793,27.67,28.58,14.45,0,111.3,13.08,28.52,86.4
"2010-09-20 00:06:00",175993,11.66,126.2,1.549,0.291,23.89,111.0786,27.67,28.58,14.45,0,111.3,13.08,28.52,88.2
"2010-09-20 00:06:30",175994,11.69,125.4,1.232,0.159,23.86,111.079,27.67,28.57,14.46,0,111.3,13.08,28.52,87.4
"2010-09-20 00:07:00",175995,11.11,124.2,1.629,0.319,23.82,111.0779,27.67,28.59,14.5,0,111.3,13.08,28.51,86.2
"2010-09-20 00:07:30",175996,10.82,121.8,1.539,0.2,23.75,111.0758,27.66,28.57,14.55,0,111.3,13.08,28.51,83.8
"2010-09-20 00:08:00",175997,11.34,123.9,1.976,0.217,23.81,111.0771,27.66,28.57,14.58,0,111.3,13.08,28.51,85.9
"2010-09-20 00:08:30",175998,11.34,121.3,2.738,0.181,23.79,111.0771,27.66,28.56,14.63,0,111.3,13.08,28.51,83.3
"2010-09-20 00:09:00",175999,11.14,120.8,0.91,0.314,23.79,111.0765,27.66,28.56,14.63,0,111.3,13.08,28.51,82.8
"2010-09-20 00:09:30",176000,10.89,122.5,1.365,0.322,23.83,111.0768,27.66,28.56,14.68,0,111.3,13.08,28.51,84.5
"2010-09-20 00:10:00",176001,10.88,122.3,2.074,0.284,23.78,111.0769,27.66,28.55,14.68,0,111.3,13.08,28.51,84.3
"2010-09-20 00:10:30",176002,11.38,124.2,2.586,0.363,23.89,111.073,27.65,28.54,14.77,0,111.3,13.08,28.50,86.2
"2010-09-20 00:11:00",176003,10.73,120.2,1.007,0.328,23.78,111.069,27.64,28.56,14.84,0,111.3,13.08,28.49,82.2
"2010-09-20 00:11:30",176004,10.67,121.7,2.196,0.28,23.82,111.0558,27.61,28.54,14.94,0,111.3,13.08,28.46,83.7
"2010-09-20 00:12:00",176005,10.75,121.9,2.327,0.26,23.84,111.0522,27.6,28.53,15.07,0,111.3,13.08,28.45,83.9
"2010-09-20 00:12:30",176006,11.04,123.4,1.181,0.253,23.87,111.0508,27.6,28.51,15.23,0,111.3,13.08,28.44,85.4
"2010-09-20 00:13:00",176007,10.68,121.1,1.603,0.143,23.82,111.0474,27.59,28.52,15.34,0,111.3,13.08,28.43,83.1
"2010-09-20 00:13:30",176008,11.01,120.1,0.907,0.177,23.82,111.044,27.58,28.52,15.37,0,111.3,13.08,28.43,82.1
"2010-09-20 00:14:00",176009,10.95,120.2,1.576,0.16,23.8,111.0438,27.58,28.52,15.46,0,111.3,13.08,28.43,82.2
"2010-09-20 00:14:30",176010,9.53,120.4,3.066,0.458,23.63,111.0435,27.58,28.5,15.53,0,111.3,13.08,28.42,82.4
"2010-09-20 00:15:00",176011,10.44,121.6,3.114,0.787,23.77,111.0379,27.56,28.49,15.56,0,111.3,13.08,28.41,83.6
"2010-09-20 00:15:30",176012,10.41,121.4,4.198,0.413,23.88,111.0283,27.54,28.47,15.62,0,111.3,13.08,28.39,83.4
"2010-09-20 00:16:00",176013,10.25,125.5,3.626,0.359,23.93,111.023,27.52,28.46,15.73,0,111.3,13.08,28.37,87.5
"2010-09-20 00:16:30",176014,9.86,121.2,4.725,0.661,23.59,111.0121,27.5,28.45,15.73,0,111.3,13.08,28.34,83.2
"2010-09-20 00:17:00",176015,9.19,124.4,3.462,1.29,23.74,111.0101,27.49,28.43,15.77,0,111.3,13.08,28.34,86.4
"2010-09-20 00:17:30",176016,11.04,123.9,4.064,0.42,24,111.0095,27.49,28.43,16.01,0,111.3,13.08,28.34,85.9
"2010-09-20 00:18:00",176017,10.39,119.1,4.642,0.654,23.81,111.0093,27.49,28.41,16.06,0,111.3,13.08,28.34,81.1
"2010-09-20 00:18:30",176018,11.18,119.7,2,0.317,23.9,111.0062,27.48,28.4,16.15,0,111.3,13.08,28.33,81.7
"2010-09-20 00:19:00",176019,11.2,122.3,1.754,0.24,23.9,111.0017,27.47,28.4,16.25,0,111.3,13.08,28.32,84.3
"2010-09-20 00:19:30",176020,11.04,121.8,2.52,0.313,23.95,111,27.46,28.39,16.32,0,111.3,13.08,28.31,83.8
"2010-09-20 00:20:00",176021,11.04,119.1,2.05,0.217,23.9,110.9949,27.45,28.38,16.4,0,111.3,13.08,28.30,81.1
"2010-09-20 00:20:30",176022,10.69,121.6,1.214,0.287,23.92,110.9963,27.46,28.38,16.49,0,111.3,13.09,28.30,83.6
"2010-09-20 00:21:00",176023,10.2,120,2.311,0.567,23.7,110.9938,27.45,28.38,16.44,0,111.3,13.09,28.30,82.0
"2010-09-20 00:21:30",176024,10.74,121.3,2.105,0.373,23.81,110.9851,27.43,28.37,16.47,0,111.3,13.09,28.27,83.3
"2010-09-20 00:22:00",176025,10.69,122.2,2.009,0.204,23.92,110.9848,27.43,28.38,16.5,0,111.3,13.09,28.27,84.2
"2010-09-20 00:22:30",176026,10.41,120.4,1.078,0.235,23.9,110.9834,27.42,28.36,16.53,0,111.3,13.09,28.27,82.4
"2010-09-20 00:23:00",176027,10.85,120.7,1.547,0.285,23.95,110.9812,27.42,28.36,16.56,0,111.3,13.09,28.26,82.7
"2010-09-20 00:23:30",176028,10.7,118.1,1.989,0.209,23.81,110.9787,27.41,28.36,16.55,0,111.3,13.09,28.26,80.1
"2010-09-20 00:24:00",176029,10.6,116.2,1.226,0.185,23.82,110.977,27.41,28.36,16.48,0,111.3,13.09,28.25,78.2
"2010-09-20 00:24:30",176030,10.54,117.2,2.402,0.204,23.72,110.9764,27.4,28.35,16.43,0,111.3,13.09,28.25,79.2
"2010-09-20 00:25:00",176031,10.45,116.7,3.126,0.256,23.7,110.9764,27.4,28.35,16.42,0,111.3,13.09,28.25,78.7
"2010-09-20 00:25:30",176032,10.9,116.9,2.054,0.401,23.7,110.9764,27.4,28.34,16.45,0,111.3,13.09,28.25,78.9
"2010-09-20 00:26:00",176033,11.37,119.2,1.127,0.205,23.86,110.9663,27.38,28.33,16.52,0,111.3,13.09,28.23,81.2
"2010-09-20 00:26:30",176034,10.76,117.2,1.901,0.333,23.74,110.952,27.34,28.33,16.57,0,111.3,13.09,28.19,79.2
"2010-09-20 00:27:00",176035,10.37,115.5,2.057,0.289,23.6,110.9453,27.32,28.31,16.64,0,111.3,13.09,28.17,77.5
"2010-09-20 00:27:30",176036,10.94,117.3,2.859,0.445,23.73,110.9428,27.32,28.29,16.69,0,111.3,13.09,28.17,79.3
"2010-09-20 00:28:00",176037,10.58,116.4,2.755,0.309,23.68,110.9428,27.32,28.28,16.74,0,111.3,13.09,28.17,78.4
"2010-09-20 00:28:30",176038,10.92,119.3,2.009,0.382,23.76,110.9293,27.28,28.26,16.81,0,111.3,13.08,28.13,81.3
"2010-09-20 00:29:00",176039,11.21,122.8,2.137,0.412,23.9,110.9175,27.25,28.24,16.83,0,111.3,13.08,28.10,84.8
"2010-09-20 00:29:30",176040,10.92,121.5,2.6,0.316,23.83,110.9128,27.24,28.23,16.87,0,111.3,13.08,28.09,83.5
"2010-09-20 00:30:00",176041,10.63,119.8,2.039,0.375,23.73,110.911,27.24,28.24,16.96,0,111.3,13.08,28.08,81.8
"2010-09-20 00:30:30",176042,10.92,122.8,1.925,0.226,23.98,110.911,27.24,28.21,16.96,0,111.3,13.08,28.08,84.8
"2010-09-20 00:31:00",176043,10.94,121.5,1.051,0.174,23.95,110.911,27.24,28.19,17.02,0,111.3,13.08,28.08,83.5
"2010-09-20 00:31:30",176044,10.46,124.6,1.497,0.166,24.06,110.9117,27.24,28.18,16.97,0,111.3,13.08,28.08,86.6
"2010-09-20 00:32:00",176045,10.43,124.4,0.936,0.136,24.05,110.9156,27.25,28.18,16.98,0,111.3,13.08,28.09,86.4
"2010-09-20 00:32:30",176046,9.91,126.6,1.783,0.304,24.11,110.9197,27.26,28.18,16.92,0,111.3,13.08,28.11,88.6
"2010-09-20 00:33:00",176047,9.49,129.1,1.439,0.151,24.12,110.9209,27.26,28.18,16.82,0,111.3,13.08,28.11,91.1
"2010-09-20 00:33:30",176048,9.39,131.1,0.762,0.16,24.14,110.9201,27.26,28.18,16.74,0,111.3,13.08,28.11,93.1
"2010-09-20 00:34:00",176049,9.6,130.6,0.956,0.172,24.19,110.9361,27.3,28.19,16.66,0,111.3,13.09,28.15,92.6
"2010-09-20 00:34:30",176050,9.64,130.6,2.027,0.206,24.16,110.9557,27.35,28.21,16.49,0,111.3,13.09,28.20,92.6
"2010-09-20 00:35:00",176051,9.59,130.8,1.369,0.136,24.12,110.9608,27.36,28.23,16.54,0,111.3,13.09,28.21,92.8
"2010-09-20 00:35:30",176052,9.29,129.1,1.651,0.093,24.13,110.9625,27.37,28.24,16.55,0,111.3,13.09,28.22,91.1
"2010-09-20 00:36:00",176053,9.48,130.6,1.252,0.133,24.16,110.9709,27.39,28.26,16.43,0,111.3,13.09,28.24,92.6
"2010-09-20 00:36:30",176054,9.73,129.9,0.976,0.226,24.16,110.9818,27.42,28.27,16.25,0,111.3,13.09,28.27,91.9
"2010-09-20 00:37:00",176055,9.81,132.3,1.68,0.177,24.17,110.9981,27.46,28.28,16.15,0,111.3,13.09,28.31,94.3
"2010-09-20 00:37:30",176056,9.53,130.5,0.678,0.175,24.15,111.0004,27.47,28.3,16.24,0,111.3,13.09,28.31,92.5
"2010-09-20 00:38:00",176057,9.56,129.4,1.525,0.227,24.14,111.002,27.47,28.31,16.09,0,111.3,13.09,28.32,91.4
"2010-09-20 00:38:30",176058,10,128.2,1.195,0.251,24.2,111.002,27.47,28.33,16.05,0,111.3,13.09,28.32,90.2
"2010-09-20 00:39:00",176059,9.92,128.9,1.89,0.295,24.24,111.0058,27.48,28.33,15.48,0,111.3,13.09,28.33,90.9
"2010-09-20 00:39:30",176060,9.58,126.4,1.211,0.293,24.17,111.012,27.5,28.35,15.74,0,111.3,13.09,28.34,88.4
"2010-09-20 00:40:00",176061,9.83,126.7,2.019,0.159,24.2,111.016,27.51,28.36,15.6,0,111.3,13.09,28.35,88.7
"2010-09-20 00:40:30",176062,9.51,127.2,1.291,0.247,24.16,111.0238,27.53,28.39,15.79,0,111.3,13.09,28.37,89.2
"2010-09-20 00:41:00",176063,9.71,126.3,1.324,0.157,24.16,111.0314,27.55,28.38,15.86,0,111.3,13.09,28.39,88.3
"2010-09-20 00:41:30",176064,9.76,126.3,0.827,0.143,24.21,111.0354,27.56,28.4,15.79,0,111.3,13.09,28.40,88.3
"2010-09-20 00:42:00",176065,9.97,126.5,1.2,0.144,24.25,111.0365,27.56,28.39,15.46,0,111.3,13.09,28.41,88.5
"2010-09-20 00:42:30",176066,10.36,128.4,1.145,0.145,24.26,111.0391,27.57,28.4,14.95,0,111.3,13.09,28.41,90.4
"2010-09-20 00:43:00",176067,10.27,128.6,1.301,0.134,24.24,111.0391,27.57,28.41,15.17,0,111.3,13.09,28.41,90.6
"2010-09-20 00:43:30",176068,9.98,127.1,1.502,0.228,24.18,111.0409,27.57,28.42,15.16,0,111.3,13.09,28.42,89.1
"2010-09-20 00:44:00",176069,9.85,127.2,1.225,0.138,24.16,111.04,27.57,28.43,15.35,0,111.3,13.09,28.42,89.2
"2010-09-20 00:44:30",176070,9.75,128,1.405,0.189,24.14,111.0422,27.57,28.43,15.47,0,111.3,13.09,28.42,90.0
"2010-09-20 00:45:00",176071,10.1,126.7,0.709,0.114,24.22,111.0431,27.58,28.43,15.11,0,111.3,13.09,28.42,88.7
"2010-09-20 00:45:30",176072,10.47,127.6,1.212,0.128,24.31,111.0441,27.58,28.43,14.35,0,111.3,13.09,28.43,89.6
"2010-09-20 00:46:00",176073,10.25,125.6,0.763,0.068,24.28,111.0466,27.58,28.44,14.48,0,111.3,13.09,28.43,87.6
"2010-09-20 00:46:30",176074,10.37,124.2,0.547,0.069,24.28,111.0453,27.58,28.42,14.47,0,111.2,13.09,28.43,86.2
"2010-09-20 00:47:00",176075,10.26,124.4,0.599,0.106,24.28,111.0459,27.58,28.44,14.58,0,111.3,13.08,28.43,86.4
"2010-09-20 00:47:30",176076,10.25,124.2,0.731,0.126,24.3,111.0472,27.59,28.45,14.47,0,111.2,13.09,28.43,86.2
"2010-09-20 00:48:00",176077,10.37,124.2,0.952,0.07,24.28,111.0475,27.59,28.44,14.53,0,111.2,13.09,28.44,86.2
"2010-09-20 00:48:30",176078,10.15,124.9,0.501,0.166,24.29,111.0475,27.59,28.45,14.46,0,111.3,13.09,28.44,86.9
"2010-09-20 00:49:00",176079,10.09,124.9,1.044,0.132,24.35,111.0475,27.59,28.45,14.26,0,111.2,13.09,28.44,86.9
"2010-09-20 00:49:30",176080,10.1,125,0.65,0.109,24.38,111.0475,27.59,28.45,14.14,0,111.3,13.09,28.44,87.0
"2010-09-20 00:50:00",176081,10.14,124.1,1.048,0.173,24.35,111.0475,27.59,28.46,14.12,0,111.3,13.09,28.44,86.1
"2010-09-20 00:50:30",176082,10.15,124.5,0.784,0.153,24.35,111.0472,27.59,28.45,14.29,0,111.2,13.09,28.43,86.5
"2010-09-20 00:51:00",176083,10.07,125.5,1.037,0.117,24.37,111.0475,27.59,28.46,14.11,0,111.2,13.09,28.44,87.5
"2010-09-20 00:51:30",176084,9.99,124.4,0.661,0.233,24.37,111.0475,27.59,28.46,14.04,0,111.2,13.09,28.44,86.4
"2010-09-20 00:52:00",176085,9.89,124.8,2.064,0.317,24.41,111.0472,27.59,28.44,13.88,0,111.2,13.09,28.43,86.8
"2010-09-20 00:52:30",176086,9.98,124.7,2.224,0.352,24.43,111.045,27.58,28.44,14.04,0,111.2,13.09,28.43,86.7
"2010-09-20 00:53:00",176087,10.04,125.7,1.609,0.217,24.46,111.0455,27.58,28.44,13.4,0,111.2,13.09,28.43,87.7
"2010-09-20 00:53:30",176088,9.89,124.7,1.424,0.221,24.37,111.0444,27.58,28.45,13.73,0,111.2,13.1,28.43,86.7
"2010-09-20 00:54:00",176089,10.31,128.4,1.098,0.137,24.47,111.043,27.58,28.46,13.35,0,111.2,13.1,28.42,90.4
"2010-09-20 00:54:30",176090,10.13,125.3,2.255,0.23,24.45,111.0424,27.57,28.43,13.09,0,111.2,13.1,28.42,87.3
"2010-09-20 00:55:00",176091,10.23,127.7,1.114,0.16,24.43,111.0424,27.57,28.45,13.03,0,111.2,13.1,28.42,89.7
"2010-09-20 00:55:30",176092,10.21,128.2,1.284,0.177,24.46,111.045,27.58,28.45,12.81,0,111.2,13.1,28.43,90.2
"2010-09-20 00:56:00",176093,9.99,126.4,0.943,0.193,24.43,111.0475,27.59,28.45,12.86,0,111.2,13.1,28.44,88.4
"2010-09-20 00:56:30",176094,10.05,127.6,2.456,0.286,24.49,111.0475,27.59,28.46,12.66,0,111.2,13.1,28.44,89.6
"2010-09-20 00:57:00",176095,10.05,126.2,1.336,0.2,24.37,111.0475,27.59,28.46,12.72,0,111.2,13.1,28.44,88.2
"2010-09-20 00:57:30",176096,9.58,124.7,1.795,0.229,24.3,111.0475,27.59,28.46,12.97,0,111.2,13.1,28.44,86.7
"2010-09-20 00:58:00",176097,9.88,125.4,1.024,0.252,24.41,111.0475,27.59,28.45,12.85,0,111.2,13.1,28.44,87.4
"2010-09-20 00:58:30",176098,10.07,123.1,1.606,0.254,24.35,111.0475,27.59,28.46,12.8,0,111.2,13.1,28.44,85.1
"2010-09-20 00:59:00",176099,9.9,124.2,1.888,0.184,24.27,111.0472,27.59,28.47,13.03,0,111.2,13.1,28.43,86.2
"2010-09-20 00:59:30",176100,9.69,122.2,3.627,0.287,24.32,111.043,27.58,28.47,13.19,0,111.2,13.1,28.42,84.2
"2010-09-20 01:00:00",176101,9.75,125.3,2.225,0.222,24.4,111.0371,27.56,28.46,12.66,0,111.2,13.1,28.41,87.3
"2010-09-20 01:00:30",176102,9.69,124.5,1.693,0.236,24.37,111.0332,27.55,28.46,12.62,0,111.2,13.1,28.40,86.5
"2010-09-20 01:01:00",176103,9.75,123.1,1.086,0.216,24.38,111.0279,27.54,28.45,12.54,0,111.2,13.1,28.38,85.1
"2010-09-20 01:01:30",176104,9.7,125.2,1.428,0.161,24.38,111.0242,27.53,28.44,12.42,0,111.2,13.1,28.38,87.2
"2010-09-20 01:02:00",176105,9.37,124.1,0.994,0.12,24.27,111.0229,27.52,28.45,12.59,0,111.2,13.1,28.37,86.1
"2010-09-20 01:02:30",176106,9.48,126.4,1.111,0.203,24.37,111.0212,27.52,28.45,12.59,0,111.2,13.1,28.37,88.4
"2010-09-20 01:03:00",176107,9.6,126.3,1.226,0.186,24.44,111.022,27.52,28.45,12.19,0,111.2,13.1,28.37,88.3
"2010-09-20 01:03:30",176108,9.24,125,1.662,0.214,24.34,111.0247,27.53,28.45,12.44,0,111.2,13.09,28.38,87.0
"2010-09-20 01:04:00",176109,9.39,127,1.012,0.118,24.5,111.0263,27.53,28.45,12.1,0,111.2,13.09,28.38,89.0
"2010-09-20 01:04:30",176110,9.06,126.9,1.208,0.135,24.58,111.0325,27.55,28.45,11.86,0,111.2,13.09,28.40,88.9
"2010-09-20 01:05:00",176111,9.09,127.8,1.132,0.116,24.52,111.0488,27.59,28.45,11.82,0,111.2,13.09,28.44,89.8
"2010-09-20 01:05:30",176112,9.13,130.2,1.326,0.129,24.58,111.0556,27.61,28.46,11.69,0,111.2,13.09,28.46,92.2
"2010-09-20 01:06:00",176113,8.7,133.2,1.84,0.352,24.83,111.066,27.63,28.49,11.26,0,111.2,13.1,28.48,95.2
"2010-09-20 01:06:30",176114,8.59,134.3,0.745,0.152,24.62,111.0914,27.7,28.51,11.34,0,111.2,13.09,28.55,96.3
"2010-09-20 01:07:00",176115,8.42,135.4,1.679,0.184,24.59,111.0995,27.72,28.54,11.4,0,111.2,13.09,28.57,97.4
"2010-09-20 01:07:30",176116,8.18,136.5,2.848,0.276,24.64,111.1088,27.74,28.56,11.39,0,111.2,13.1,28.59,98.5
"2010-09-20 01:08:00",176117,7.942,138.7,0.983,0.18,24.73,111.1354,27.81,28.59,11.08,0,111.2,13.1,28.66,100.7
"2010-09-20 01:08:30",176118,7.67,138.4,1.505,0.183,24.78,111.1529,27.86,28.63,10.9,0,111.2,13.11,28.71,100.4
"2010-09-20 01:09:00",176119,7.63,140.7,1.716,0.397,24.69,111.1765,27.92,28.69,10.95,0,111.2,13.11,28.77,102.7
"2010-09-20 01:09:30",176120,7.34,139.1,2.889,0.235,24.67,111.1971,27.97,28.71,10.99,0,111.2,13.11,28.82,101.1
"2010-09-20 01:10:00",176121,7.445,139.3,3.548,0.157,24.63,111.21,28,28.75,11,0,111.2,13.11,28.85,101.3
"2010-09-20 01:10:30",176122,7.368,139.5,2.043,0.25,24.6,111.2175,28.02,28.79,11.02,0,111.2,13.11,28.87,101.5
"2010-09-20 01:11:00",176123,6.921,139.9,1.016,0.093,24.8,111.2356,28.07,28.81,10.76,0,111.2,13.11,28.92,101.9
"2010-09-20 01:11:30",176124,6.793,136.7,3.267,0.153,24.73,111.2471,28.1,28.85,10.75,0,111.2,13.11,28.95,98.7
"2010-09-20 01:12:00",176125,6.122,136.4,1.791,0.307,25.03,111.2673,28.15,28.88,10.47,0,111.2,13.11,29.00,98.4
"2010-09-20 01:12:30",176126,5.856,140.8,3.233,0.321,24.87,111.2932,28.22,28.94,10.41,0,111.2,13.11,29.07,102.8
"2010-09-20 01:13:00",176127,6.49,142.8,1.605,0.094,24.62,111.3123,28.27,28.99,10.61,0,111.2,13.11,29.12,104.8
"2010-09-20 01:13:30",176128,6.532,144,1.403,0.098,24.74,111.3126,28.27,29.02,10.72,0,111.2,13.11,29.12,106.0
"2010-09-20 01:14:00",176129,6.551,145.2,0.784,0.049,24.87,111.3218,28.29,29.03,10.52,0,111.2,13.11,29.14,107.2
"2010-09-20 01:14:30",176130,6.492,144.4,0.288,0.077,24.76,111.338,28.33,29.06,10.48,0,111.2,13.11,29.18,106.4
"2010-09-20 01:15:00",176131,6.557,146.3,1.371,0.095,24.79,111.3502,28.37,29.1,10.45,0,111.2,13.11,29.22,108.3
"2010-09-20 01:15:30",176132,6.511,147.9,0.621,0.08,24.89,111.3519,28.37,29.12,10.4,0,111.2,13.11,29.22,109.9
"2010-09-20 01:16:00",176133,6.23,148.9,1.007,0.074,24.82,111.3611,28.39,29.14,10.31,0,111.2,13.11,29.24,110.9
"2010-09-20 01:16:30",176134,6.135,148.2,1.684,0.098,24.92,111.3813,28.45,29.17,10.22,0,111.2,13.11,29.30,110.2
"2010-09-20 01:17:00",176135,5.891,147.4,1.407,0.12,24.97,111.3868,28.46,29.21,9.94,0,111.2,13.11,29.31,109.4
"2010-09-20 01:17:30",176136,5.909,148.3,1.352,0.113,24.91,111.402,28.5,29.24,9.94,0,111.2,13.11,29.35,110.3
"2010-09-20 01:18:00",176137,5.977,149.7,0.851,0.064,24.94,111.4212,28.55,29.28,10.02,0,111.2,13.11,29.40,111.7
"2010-09-20 01:18:30",176138,6.231,152,1.264,0.081,24.84,111.422,28.55,29.32,10.17,0,111.2,13.11,29.40,114.0
"2010-09-20 01:19:00",176139,6.586,151,1.203,0.18,24.51,111.4218,28.55,29.33,10.45,0,111.2,13.11,29.40,113.0
"2010-09-20 01:19:30",176140,6.962,147.9,2.146,0.22,24.2,111.3996,28.49,29.33,10.99,0,111.2,13.11,29.34,109.9
"2010-09-20 01:20:00",176141,7.429,150.1,1.45,0.211,24.18,111.3606,28.39,29.29,11.19,0,111.2,13.11,29.24,112.1
"2010-09-20 01:20:30",176142,7.766,154.3,3.887,0.545,24.39,111.3191,28.29,29.24,11.17,0,111.2,13.11,29.14,116.3
"2010-09-20 01:21:00",176143,8.21,156.7,2.829,0.405,24.41,111.2822,28.19,29.16,11.33,0,111.2,13.11,29.04,118.7
"2010-09-20 01:21:30",176144,8.53,160.3,2.616,0.508,24.49,111.2539,28.12,29.1,11.32,0,111.2,13.1,28.97,122.3
"2010-09-20 01:22:00",176145,8.02,159.8,3.062,0.359,24.53,111.2301,28.06,29.05,11.39,0,111.2,13.1,28.91,121.8
"2010-09-20 01:22:30",176146,7.687,164.3,3.54,0.385,24.36,111.2135,28.01,29.02,11.6,0,111.2,13.1,28.86,126.3
"2010-09-20 01:23:00",176147,7.695,169.3,3.464,0.239,24.33,111.184,27.94,28.97,11.78,0,111.2,13.1,28.79,131.3
"2010-09-20 01:23:30",176148,7.367,167,3.958,0.392,24.28,111.1543,27.86,28.88,11.91,0,111.2,13.1,28.71,129.0
"2010-09-20 01:24:00",176149,7.476,169.3,4.268,0.383,24.23,111.1236,27.78,28.84,12.06,0,111.2,13.1,28.63,131.3
"2010-09-20 01:24:30",176150,7.735,172.5,5.371,0.426,24.37,111.1009,27.72,28.75,12.27,0,111.2,13.1,28.57,134.5
"2010-09-20 01:25:00",176151,7.372,167.4,3.571,0.722,24.18,111.0815,27.67,28.7,12.45,0,111.2,13.11,28.52,129.4
"2010-09-20 01:25:30",176152,7.751,175.4,7.105,0.81,24.16,111.054,27.6,28.65,12.64,0,111.2,13.11,28.45,137.4
"2010-09-20 01:26:00",176153,9.63,196.9,2.554,0.642,24.68,111.0403,27.57,28.61,12.43,0,111.2,13.11,28.42,158.9
"2010-09-20 01:26:30",176154,9.76,191.1,6.383,0.572,24.86,111.0512,27.6,28.56,12.15,0,111.2,13.11,28.44,153.1
"2010-09-20 01:27:00",176155,8.77,182.2,5.605,0.798,24.45,111.0537,27.6,28.57,12.38,0,111.2,13.11,28.45,144.2
"2010-09-20 01:27:30",176156,9,196.2,4.038,0.685,24.64,111.056,27.61,28.56,12.24,0,111.2,13.11,28.46,158.2
"2010-09-20 01:28:00",176157,9.23,189.5,4.073,0.735,24.61,111.0605,27.62,28.56,12.22,0,111.2,13.11,28.47,151.5
"2010-09-20 01:28:30",176158,10.42,196.5,5.148,1.39,24.45,111.0608,27.62,28.56,12.36,0,111.2,13.11,28.47,158.5
"2010-09-20 01:29:00",176159,11.99,195.9,3.617,0.696,24.46,111.0551,27.61,28.55,12.36,0,111.2,13.11,28.45,157.9
"2010-09-20 01:29:30",176160,11.05,199.5,3.309,0.361,24.4,111.0512,27.6,28.54,12.46,0,111.2,13.11,28.44,161.5
"2010-09-20 01:30:00",176161,10.4,195.2,6.162,0.733,24.24,111.0464,27.58,28.51,12.54,0,111.2,13.11,28.43,157.2
"2010-09-20 01:30:30",176162,11.59,197.8,3.685,0.81,24.57,111.0259,27.53,28.49,12.38,0,111.2,13.11,28.38,159.8
"2010-09-20 01:31:00",176163,11.57,194.3,2.514,0.365,24.5,111.0259,27.53,28.48,12.29,0,111.2,13.11,28.38,156.3
"2010-09-20 01:31:30",176164,12.53,195.1,1.633,0.389,24.73,111.024,27.53,28.47,12.26,0,111.2,13.11,28.37,157.1
"2010-09-20 01:32:00",176165,12.57,194.7,1.951,0.25,24.68,111.0268,27.53,28.47,12.14,0,111.2,13.11,28.38,156.7
"2010-09-20 01:32:30",176166,12.07,193.9,2.205,0.71,24.5,111.033,27.55,28.49,12.28,0,111.2,13.11,28.40,155.9
"2010-09-20 01:33:00",176167,11.7,198.2,3,0.973,24.51,111.0282,27.54,28.47,12.31,0,111.2,13.11,28.39,160.2
"2010-09-20 01:33:30",176168,12.63,195.2,0.974,0.384,24.67,111.0363,27.56,28.46,12.08,0,111.2,13.12,28.41,157.2
"2010-09-20 01:34:00",176169,12.01,195.9,2.56,0.665,24.54,111.0467,27.59,28.46,12.28,0,111.2,13.12,28.43,157.9
"2010-09-20 01:34:30",176170,12.42,193.9,1.297,0.176,24.59,111.0498,27.59,28.48,12.22,0,111.2,13.11,28.44,155.9
"2010-09-20 01:35:00",176171,12.4,194.9,1.183,0.279,24.75,111.0509,27.6,28.48,12.14,0,111.2,13.12,28.44,156.9
"2010-09-20 01:35:30",176172,12.17,193.4,0.989,0.165,24.77,111.0512,27.6,28.48,12.16,0,111.2,13.12,28.44,155.4
"2010-09-20 01:36:00",176173,12.19,194.1,1.093,0.265,24.58,111.0551,27.61,28.5,12.15,0,111.2,13.12,28.45,156.1
"2010-09-20 01:36:30",176174,12.06,194.2,1.247,0.293,24.56,111.0551,27.61,28.51,12.18,0,111.2,13.12,28.45,156.2
"2010-09-20 01:37:00",176175,11.69,192.9,2.096,0.36,24.39,111.052,27.6,28.51,12.27,0,111.2,13.11,28.45,154.9
"2010-09-20 01:37:30",176176,11.95,198.1,0.706,0.156,24.55,111.0512,27.6,28.51,12.26,0,111.2,13.11,28.44,160.1
"2010-09-20 01:38:00",176177,11.57,198.7,1.211,0.25,24.73,111.0512,27.6,28.51,12.28,0,111.2,13.11,28.44,160.7
"2010-09-20 01:38:30",176178,11.55,201.8,0.326,0.176,24.51,111.0512,27.6,28.52,12.41,0,111.2,13.11,28.44,163.8
"2010-09-20 01:39:00",176179,10.95,199.4,1.797,0.405,24.26,111.0512,27.6,28.51,12.48,0,111.2,13.11,28.44,161.4
"2010-09-20 01:39:30",176180,10.31,200.9,2.668,0.669,24.02,111.0431,27.58,28.5,12.65,0,111.2,13.11,28.42,162.9
"2010-09-20 01:40:00",176181,11.45,201,1.777,0.332,24.22,111.0178,27.51,28.47,12.75,0,111.2,13.11,28.36,163.0
"2010-09-20 01:40:30",176182,11.35,202.9,1.155,0.473,24.24,111.0102,27.49,28.46,12.76,0,111.2,13.11,28.34,164.9
"2010-09-20 01:41:00",176183,11.97,204.1,1.209,0.231,24.56,110.9875,27.43,28.44,12.63,0,111.2,13.11,28.28,166.1
"2010-09-20 01:41:30",176184,11.31,206.4,1.544,0.216,24.56,110.9908,27.44,28.43,12.58,0,111.2,13.11,28.29,168.4
"2010-09-20 01:42:00",176185,11.16,206.3,1.063,0.172,24.59,110.9945,27.45,28.42,12.64,0,111.2,13.11,28.30,168.3
"2010-09-20 01:42:30",176186,11.41,205.2,0.982,0.258,24.48,111.0097,27.49,28.4,12.56,0,111.2,13.11,28.34,167.2
"2010-09-20 01:43:00",176187,11.22,204.4,0.756,0.185,24.56,111.0175,27.51,28.41,12.68,0,111.2,13.12,28.36,166.4
"2010-09-20 01:43:30",176188,11.31,204.4,0.569,0.116,24.58,111.0194,27.51,28.41,12.61,0,111.2,13.12,28.36,166.4
"2010-09-20 01:44:00",176189,11.67,203.2,1.218,0.214,24.63,111.0197,27.52,28.43,12.54,0,111.2,13.12,28.36,165.2
"2010-09-20 01:44:30",176190,11.46,203.2,1.556,0.151,24.54,111.0206,27.52,28.43,12.57,0,111.2,13.12,28.37,165.2
"2010-09-20 01:45:00",176191,11.54,204.9,0.653,0.133,24.52,111.0216,27.52,28.45,12.58,0,111.2,13.12,28.37,166.9
"2010-09-20 01:45:30",176192,11.63,204.6,0.806,0.134,24.48,111.0259,27.53,28.44,12.47,0,111.2,13.12,28.38,166.6
"2010-09-20 01:46:00",176193,11.4,203.9,1.553,0.317,24.44,111.0328,27.55,28.44,12.34,0,111.2,13.12,28.40,165.9
"2010-09-20 01:46:30",176194,11.13,205.8,1.779,0.288,24.42,111.0317,27.55,28.46,12.28,0,111.2,13.12,28.39,167.8
"2010-09-20 01:47:00",176195,11.21,208.1,1.414,0.421,24.4,111.0327,27.55,28.47,12.34,0,111.2,13.12,28.40,170.1
"2010-09-20 01:47:30",176196,11.34,207.5,1.049,0.223,24.38,111.0331,27.55,28.46,12.28,0,111.2,13.12,28.40,169.5
"2010-09-20 01:48:00",176197,11.8,205.3,1.99,0.537,24.38,111.0334,27.55,28.45,12.33,0,111.2,13.12,28.40,167.3
"2010-09-20 01:48:30",176198,11.92,206.4,1.581,0.281,24.35,111.0359,27.56,28.44,12.33,0,111.2,13.12,28.41,168.4